Big Delta, AK

3:49 AM AKDT on April 19, 2018 (GMT -0800)
Allen Army Air Field

Weather History for PABI - October, 2013

Change the Weather History Date:

Friday, October 4, 2013

  Actual Average Record
Temperature  
Mean Temperature 32 °F -  
Max Temperature 37 °F 38 °F 62 °F (2001)
Min Temperature 28 °F 23 °F 6 °F (1996)
Degree Days  
Heating Degree Days 32    
Moisture  
Dew Point 31 °F    
Average Humidity 90    
Maximum Humidity 93    
Minimum Humidity 82    
Precipitation  
Precipitation 0.03 in - - ()
Sea Level Pressure  
Sea Level Pressure 29.76 in    
Wind  
Wind Speed 5 mph (West)    
Max Wind Speed 10 mph    
Max Gust Speed -    
Visibility 10 miles    
Events Rain , Snow    
Averages and records for this station are not official NWS values.
T = Trace of Precipitation, MM = Missing Value Source: NWS Daily Summary

Daily Weather History Graph

Daily Weather History Graph

Search for Another Location

Airport or City:

Astronomy

Oct. 04, 2013 Rise Set
Actual Time 8:01 AM AKDT 6:59 PM AKDT
Civil Twilight 7:14 AM AKDT 7:46 PM AKDT
Nautical Twilight 6:18 AM AKDT 8:42 PM AKDT
Astronomical Twilight 5:19 AM AKDT 9:40 PM AKDT
Moon 7:55 AM AKDT (10/4) 6:31 PM AKDT (10/4)
Length of Visible Light 12h 32m
Length of Day
10h 58m
Waning Crescent, 0% of the Moon is Illuminated
Oct 4
Waning Crescent
Oct 4
New
Oct 11
First Quarter
Oct 18
Full
Oct 26
Last Quarter

Hourly Weather History & Observations

Time (AKDT) Temp. Windchill Dew Point Humidity Pressure Visibility Wind Dir Wind Speed Gust Speed Precip Events Conditions
12:53 AM 34.0 °F 29.8 °F 30.0 °F 85% 29.63 in 10.0 mi SSE 4.6 mph - N/A   Scattered Clouds
1:53 AM 34.0 °F 29.8 °F 30.0 °F 85% 29.63 in 10.0 mi SSE 4.6 mph - N/A   Mostly Cloudy
2:53 AM 30.9 °F 27.5 °F 28.9 °F 92% 29.64 in 10.0 mi ENE 3.5 mph - N/A   Mostly Cloudy
3:53 AM 32.0 °F - 28.9 °F 88% 29.65 in 10.0 mi Calm Calm - N/A   Overcast
4:53 AM 30.9 °F - 28.0 °F 89% 29.65 in 10.0 mi Calm Calm - N/A   Overcast
5:53 AM 30.9 °F - 28.9 °F 92% 29.66 in 10.0 mi Calm Calm - N/A   Overcast
6:53 AM 30.9 °F - 28.9 °F 92% 29.67 in 10.0 mi Calm Calm - N/A   Overcast
7:53 AM 30.0 °F 25.2 °F 28.0 °F 92% 29.69 in 10.0 mi WSW 4.6 mph - N/A   Mostly Cloudy
8:53 AM 30.0 °F 25.2 °F 28.0 °F 92% 29.71 in 10.0 mi West 4.6 mph - N/A   Overcast
9:53 AM 30.9 °F 26.2 °F 28.9 °F 92% 29.73 in 10.0 mi WSW 4.6 mph - N/A   Overcast
10:53 AM 33.1 °F 28.7 °F 30.0 °F 89% 29.74 in 10.0 mi WSW 4.6 mph - N/A   Overcast
11:53 AM 35.1 °F 30.1 °F 30.9 °F 85% 29.76 in 10.0 mi West 5.8 mph - N/A   Mostly Cloudy
12:53 PM 37.0 °F 32.4 °F 32.0 °F 82% 29.78 in 10.0 mi West 5.8 mph - N/A   Overcast
1:42 PM 35.6 °F 29.9 °F 32.0 °F 87% 29.73 in 9.0 mi West 6.9 mph - 0.00 in Snow Light Snow
1:53 PM 36.0 °F 30.3 °F 32.0 °F 86% 29.79 in 9.0 mi West 6.9 mph - 0.00 in Rain Light Rain
2:05 PM 35.6 °F 29.2 °F 33.8 °F 93% 29.73 in 9.0 mi West 8.1 mph - 0.01 in Rain Light Rain
2:17 PM 35.6 °F 28.6 °F 32.0 °F 87% 29.73 in 10.0 mi WNW 9.2 mph - 0.01 in Rain Light Rain
2:30 PM 35.6 °F 28.0 °F 32.0 °F 87% 29.74 in 10.0 mi WNW 10.4 mph - 0.01 in Rain Light Rain
2:40 PM 35.6 °F 29.2 °F 33.8 °F 93% 29.74 in 10.0 mi West 8.1 mph - 0.01 in Rain Light Rain
2:53 PM 36.0 °F 29.6 °F 33.1 °F 89% 29.81 in 10.0 mi West 8.1 mph - 0.01 in Rain Light Rain
3:08 PM 35.6 °F 29.9 °F 33.8 °F 93% 29.75 in 10.0 mi West 6.9 mph - 0.00 in Rain Light Rain
3:53 PM 35.1 °F 31.0 °F 33.1 °F 92% 29.82 in 10.0 mi West 4.6 mph - 0.01 in Rain Light Rain
4:53 PM 35.1 °F 30.1 °F 33.1 °F 92% 29.83 in 9.0 mi WSW 5.8 mph - 0.02 in Rain Light Rain
5:17 PM 35.6 °F 29.9 °F 33.8 °F 93% 29.76 in 10.0 mi West 6.9 mph - 0.00 in Rain Light Rain
5:24 PM 35.6 °F 29.9 °F 33.8 °F 93% 29.76 in 9.0 mi West 6.9 mph - 0.00 in Rain Light Rain
5:53 PM 35.1 °F 27.9 °F 33.1 °F 92% 29.84 in 10.0 mi West 9.2 mph - 0.00 in   Overcast
6:16 PM 35.6 °F 29.9 °F 33.8 °F 93% 29.78 in 10.0 mi West 6.9 mph - 0.00 in Rain Light Rain
6:53 PM 35.1 °F 29.3 °F 33.1 °F 92% 29.85 in 10.0 mi West 6.9 mph - 0.00 in Rain Light Rain
7:09 PM 35.6 °F 29.9 °F 32.0 °F 87% 29.78 in 10.0 mi West 6.9 mph - 0.00 in Rain Light Rain
7:53 PM 34.0 °F 28.8 °F 32.0 °F 92% 29.86 in 10.0 mi WSW 5.8 mph - 0.00 in Rain Light Rain
8:27 PM 33.8 °F 28.6 °F 32.0 °F 93% 29.80 in 10.0 mi WSW 5.8 mph - 0.00 in   Overcast
8:53 PM 34.0 °F 28.0 °F 32.0 °F 92% 29.88 in 10.0 mi West 6.9 mph - 0.00 in Rain Light Rain
9:09 PM 33.8 °F 28.6 °F 32.0 °F 93% 29.81 in 10.0 mi West 5.8 mph - 0.00 in   Overcast
9:32 PM 33.8 °F 28.6 °F 32.0 °F 93% 29.81 in 10.0 mi West 5.8 mph - 0.00 in Rain Light Rain
9:53 PM 34.0 °F 28.8 °F 32.0 °F 92% 29.88 in 10.0 mi West 5.8 mph - 0.01 in   Overcast
10:07 PM 33.8 °F 29.6 °F 32.0 °F 93% 29.82 in 10.0 mi WSW 4.6 mph - 0.00 in   Overcast
10:53 PM 34.0 °F 28.8 °F 30.9 °F 89% 29.88 in 10.0 mi WSW 5.8 mph - 0.00 in   Overcast
11:53 PM 34.0 °F 28.8 °F 30.9 °F 89% 29.88 in 10.0 mi WSW 5.8 mph - N/A   Overcast